Location: Newark
(48.5667°N, 7.8167°E)
Time: 06:03:16
(UTC+00:00)

JY1SAT - Pass Details

Date: 25 July 2021
Orbit: 568 x 591 km, 97.7° (Epoch: 19 September)

Event Time Altitude Azimuth Distance (km) Brightness Sun altitude
Exits shadow 20:53:28 20° 156° (SSE) 1,389 ? -13.0°
Maximum altitude 20:56:18 73° 74° (ENE) 619 ? -13.3°
Drops below altitude 10° 21:00:28 10° 350° (N) 1,928 ? -13.7°
Sets 21:02:39 0° 349° (N) 2,836 ? -13.9°
